International Virtual Aviation Organisation

Russian Federation and Kazakhstan MCD

 

Карточка аэропорта URMM

Внимание!
Информация на этой странице в стадии наполнения.
Если вы не увидели какой-то информации, или заметили неточность - пожалуйста сообщите нам!
Спасибо!
Команда RU-STAFF
Название аэропортаМинеральные Воды
Название аэропорта (англ.)Mineralnyye Vody
Превышение1047 ft. (319.1 m.)
Координаты44°13.608', 43°4.9799999999999'
Высота перехода900m
Эшелон переходаQFE>=704mm:FL060; QFE<704mm:FL070
Коды ответчика1050-1057
Зона ОрВДРостов-на-Дону РПИ (URRV)
Данные METARURMM 302200Z 13002MPS 8000 NSC 09/07 Q1014 R12/090070 NOSIG RMK QFE733/0977
Проноз погоды (TAF)URMM 302000Z 3021/3121 09003G08MPS 6000 BKN016 TX20/3112Z TN10/3103Z TEMPO 3021/3107 VRB01MPS 0300 FG OVC002 BECMG 3107/3109 9999 SCT030 TEMPO 3109/3115 11006G13MPS
NOTAMshow/hide NOTAM
AWOS   TABLE

Информация о ВПП

ВПП Длина ВПП (м.) Покрытие Курс ВПП Частота ILS
123900Бетон115111.7
303900Бетон295109.3

Диспетчерские позиции

Позывной Наименование органа УВД Частота
URMM_APPМинводы-Подход119.3
URMM_R_APPМинводы-Круг120.7
URMM_TWRМинводы-Старт128.0
URMM_GNDМинводы-Руление121.9



Спутниковое изображение